Location: ????????
(55.8351°N, 38.7040°E)
Time: 05:26:32
(UTC+00:00)

ALOS - Visible Passes

Search period start: 16 July 2024 00:00
Search period end: 26 July 2024 00:00
Orbit: 672 x 675 km, 98.0° (Epoch: 15 July)

Date Brightness Start Highest point End Pass type
(mag) Time Alt. Az. Time Alt. Az. Time Alt. Az.
16 Jul 5.0 22:34:39 10° ENE 22:35:13 10° E 22:35:47 10° E visible
17 Jul 2.8 00:08:50 10° NNE 00:13:25 59° E 00:17:59 10° S visible
17 Jul 4.5 23:06:19 10° NE 23:09:39 19° E 23:12:57 10° SE visible
18 Jul 3.6 23:39:38 10° NNE 23:43:52 34° E 23:48:05 10° SSE visible
19 Jul 4.9 22:38:23 10° ENE 22:39:49 11° E 22:41:14 10° E visible
20 Jul 2.6 00:13:20 10° NNE 00:17:57 64° ESE 00:22:31 10° S visible
20 Jul 4.4 23:10:41 10° NE 23:14:11 21° E 23:17:40 10° SE visible
21 Jul 3.5 23:44:04 10° NNE 23:48:24 37° E 23:52:41 10° SSE visible
22 Jul 4.8 22:42:27 10° ENE 22:44:21 12° E 22:46:15 10° ESE visible
23 Jul 2.5 00:17:47 10° NNE 00:22:25 70° ESE 00:27:02 10° S visible
23 Jul 4.3 23:15:03 10° NE 23:18:42 22° E 23:22:19 10° SE visible
24 Jul 3.4 23:48:28 10° NNE 23:52:51 40° E 23:57:12 10° SSE visible
25 Jul 4.8 22:46:34 10° NE 22:48:50 13° E 22:51:06 10° ESE visible
